Weather reports worldwide

Advertisment
Jerez De La Frontera aeropuert, Spain (8451): temperature & dewpoint: 06.12.2018 00:00:00 - 12.12.2018 00:00:00 (CET)Jerez De La Frontera aeropuert, Spain (8451): wind speed: 06.12.2018 00:00:00 - 12.12.2018 00:00:00 (CET)Jerez De La Frontera aeropuert, Spain (8451): wind direction: 06.12.2018 00:00:00 - 12.12.2018 00:00:00 (CET)Jerez De La Frontera aeropuert, Spain (8451): reduced air pressure: 06.12.2018 00:00:00 - 12.12.2018 00:00:00 (CET)Jerez De La Frontera aeropuert, Spain (8451): visibility: 06.12.2018 00:00:00 - 12.12.2018 00:00:00 (CET)
Date & Time tt [°C] td [°C] ff [km/h] ff [kn] dd ppp [hPa] vv [km]
12.12.2018 00:00:00 13,7 13,1 4 2 NE 1023,8 6
11.12.2018 23:00:00 14,1 13,5 5 3 E 1023,9 6
11.12.2018 22:00:00 14,0 13,4 4 2 ENE 1024,2 6
11.12.2018 21:00:00 14,2 13,4 2 1 - 1024,1 10
11.12.2018 20:00:00 14,8 13,7 2 1 - 1023,8 8
11.12.2018 19:00:00 15,3 13,9 2 1 - 1023,6 6
11.12.2018 18:00:00 16,0 14,2 8 4 SE 1023,4 4,5
11.12.2018 17:00:00 16,5 14,1 4 2 - 1023,4 5
11.12.2018 16:00:00 16,7 14,0 5 3 SSE 1023,2 8
11.12.2018 15:00:00 16,6 13,6 8 4 SSE 1023,5 8
11.12.2018 14:00:00 16,3 13,1 8 4 SSE 1024,2 7
11.12.2018 13:00:00 15,9 13,0 8 4 SSE 1024,7 8
11.12.2018 12:00:00 14,8 12,3 5 3 ENE 1025,5 8
11.12.2018 11:00:00 14,6 12,5 5 3 SE 1025,6 8
11.12.2018 10:00:00 12,8 11,9 5 3 NNE 1024,8 8
11.12.2018 09:00:00 11,4 10,4 5 3 - 1024,5 8
11.12.2018 08:00:00 11,4 11,1 5 3 SSE 1024,0 10
11.12.2018 07:00:00 11,6 10,5 9 5 ESE 1023,8 10
11.12.2018 06:00:00 10,8 10,2 11 6 ESE 1023,6 10
11.12.2018 05:00:00 8,4 8,0 5 3 SE 1024,0 10
11.12.2018 04:00:00 7,0 6,1 0 0 N 1024,3 10
11.12.2018 03:00:00 7,0 5,9 4 2 S 1024,3 10
11.12.2018 02:00:00 7,3 6,2 4 2 - 1024,2 10
11.12.2018 01:00:00 8,0 6,8 0 0 N 1024,7 10
11.12.2018 00:00:00 8,5 7,0 5 3 N 1024,7 10
10.12.2018 23:00:00 9,3 7,9 0 0 N 1024,7 10
10.12.2018 22:00:00 10,0 7,9 0 0 N 1024,6 10
10.12.2018 21:00:00 11,6 8,2 0 0 N 1024,3 10
10.12.2018 20:00:00 14,8 8,1 4 2 S 1024,0 10
10.12.2018 19:00:00 17,3 8,4 8 4 ESE 1023,6 10
10.12.2018 18:00:00 20,5 8,8 5 3 S 1023,5 10
10.12.2018 17:00:00 22,9 10,0 9 5 S 1023,7 10
10.12.2018 16:00:00 22,6 13,0 13 7 WNW 1023,8 60
10.12.2018 15:00:00 22,2 12,6 9 5 WNW 1024,2 10
10.12.2018 14:00:00 22,0 11,8 5 3 - 1024,9 10
10.12.2018 13:00:00 19,0 10,0 4 2 - - 10
10.12.2018 12:00:00 17,0 11,0 2 1 - - 10
10.12.2018 11:00:00 13,7 11,1 2 1 - 1026,5 10
10.12.2018 10:00:00 10,0 9,2 2 1 - 1026,3 10
10.12.2018 09:00:00 6,2 5,9 0 0 N 1026,1 10
10.12.2018 08:00:00 5,8 5,5 4 2 - 1025,9 10
10.12.2018 07:00:00 5,5 5,1 2 1 - 1025,8 9
10.12.2018 06:00:00 6,4 5,9 8 4 SSW 1025,8 10
10.12.2018 05:00:00 7,6 7,2 2 1 - 1025,8 10
10.12.2018 04:00:00 8,1 7,5 4 2 N 1026,3 10
10.12.2018 03:00:00 8,0 7,5 5 3 NNE 1026,4 10
10.12.2018 02:00:00 8,3 7,5 4 2 - 1027,0 10
10.12.2018 01:00:00 8,6 7,8 8 4 NNE 1027,6 10
10.12.2018 00:00:00 9,1 8,0 5 3 ENE 1027,8 10
09.12.2018 23:00:00 9,6 8,5 8 4 NNE 1027,8 10
09.12.2018 22:00:00 10,0 8,8 4 2 NE 1028,2 10
09.12.2018 21:00:00 10,9 9,5 4 2 NNE 1028,1 10
09.12.2018 20:00:00 12,5 10,4 0 0 N 1027,9 10
09.12.2018 19:00:00 13,5 11,0 8 4 N 1027,6 10
09.12.2018 18:00:00 17,6 12,1 8 4 NNW 1027,3 10
09.12.2018 17:00:00 19,7 11,6 8 4 NNW 1027,1 10
09.12.2018 16:00:00 20,2 11,8 8 4 NNW 1027,0 10
09.12.2018 15:00:00 20,2 10,9 4 2 - 1027,1 10
09.12.2018 14:00:00 19,7 11,2 4 2 - 1027,8 10
09.12.2018 13:00:00 17,8 11,6 2 1 - 1028,6 10
09.12.2018 12:00:00 15,5 11,8 4 2 - 1029,5 10
09.12.2018 11:00:00 12,5 10,4 0 0 N 1029,9 10
09.12.2018 10:00:00 8,8 8,5 2 1 - 1029,6 8
09.12.2018 09:00:00 4,9 4,6 2 1 S 1029,2 4,0
09.12.2018 08:00:00 5,0 4,7 8 4 N 1028,9 10
09.12.2018 07:00:00 5,7 5,5 4 2 N 1028,7 10
09.12.2018 06:00:00 6,1 5,8 2 1 E 1028,5 6
09.12.2018 05:00:00 6,6 6,3 2 1 - 1028,9 10
09.12.2018 04:00:00 6,9 6,5 0 0 N 1028,9 10
09.12.2018 03:00:00 7,6 7,2 0 0 N 1028,8 10
09.12.2018 02:00:00 8,3 7,5 4 2 - 1028,7 10
09.12.2018 01:00:00 9,3 8,4 2 1 NNW 1029,1 10
09.12.2018 00:00:00 9,5 8,6 4 2 N 1029,1 10
08.12.2018 23:00:00 10,8 8,9 8 4 NW 1029,0 10
08.12.2018 22:00:00 11,5 9,2 5 3 W 1028,9 10
08.12.2018 21:00:00 12,7 9,3 2 1 - 1028,6 10
08.12.2018 20:00:00 13,3 9,9 5 3 NE 1028,0 10
08.12.2018 19:00:00 14,2 10,3 21 11 N 1027,4 10
08.12.2018 18:00:00 15,9 10,6 11 6 NNE 1027,6 10
08.12.2018 17:00:00 18,0 11,1 18 10 NNE 1027,5 10
08.12.2018 16:00:00 18,7 11,7 24 13 NNE 1027,5 10
08.12.2018 15:00:00 18,8 12,0 21 11 N 1027,5 10
08.12.2018 14:00:00 18,4 11,7 22 12 N 1028,1 10
08.12.2018 13:00:00 17,9 11,8 26 14 N 1028,7 10
08.12.2018 12:00:00 15,8 11,5 26 14 N 1029,2 10
08.12.2018 11:00:00 13,0 10,5 28 15 N 1029,4 10
08.12.2018 10:00:00 10,9 9,2 22 12 N 1028,8 10
08.12.2018 09:00:00 10,0 8,6 15 8 N 1028,3 10
08.12.2018 08:00:00 8,6 7,5 13 7 NNW 1028,3 10
08.12.2018 07:00:00 8,6 8,0 15 8 NNW 1027,9 10
08.12.2018 06:00:00 9,1 8,4 22 12 NNW 1027,6 10
08.12.2018 05:00:00 9,6 8,7 18 10 NNW 1027,8 10
08.12.2018 04:00:00 7,5 7,3 5 3 NNW 1028,3 10
08.12.2018 03:00:00 7,2 6,9 2 1 - 1028,3 10
08.12.2018 02:00:00 7,1 6,8 8 4 NNE 1028,3 10
08.12.2018 01:00:00 7,3 6,9 0 0 N 1028,4 10
08.12.2018 00:00:00 7,6 7,1 8 4 N 1029,1 10
07.12.2018 23:00:00 8,7 8,1 2 1 E 1029,0 10
07.12.2018 22:00:00 9,8 8,9 5 3 NNW 1029,2 10
07.12.2018 21:00:00 10,8 9,4 8 4 N 1028,9 10
07.12.2018 20:00:00 12,8 10,5 4 2 - 1028,5 10
07.12.2018 19:00:00 14,5 11,2 18 10 NW 1027,9 10
07.12.2018 18:00:00 17,3 11,1 8 4 NW 1027,4 10
07.12.2018 17:00:00 20,1 11,7 13 7 NNW 1027,1 10
07.12.2018 16:00:00 20,5 10,7 15 8 N 1027,3 10
07.12.2018 15:00:00 20,9 11,9 15 8 N 1027,6 10
07.12.2018 14:00:00 19,9 12,2 13 7 N 1027,7 10
07.12.2018 13:00:00 14,8 13,3 2 1 - 1029,0 6
07.12.2018 12:00:00 11,4 11,4 0 0 N 1029,4 0,3
07.12.2018 11:00:00 9,7 9,7 0 0 N 1029,2 0,2
07.12.2018 10:00:00 8,6 8,6 0 0 N 1028,7 0,3
07.12.2018 09:00:00 6,4 6,3 0 0 N 1028,3 0,2
07.12.2018 08:00:00 5,5 5,3 0 0 N 1027,5 0,8
07.12.2018 07:00:00 6,0 5,7 0 0 N 1027,0 2,5
07.12.2018 06:00:00 6,3 6,0 0 0 N 1026,8 8
07.12.2018 05:00:00 7,2 6,8 0 0 N 1026,7 6
07.12.2018 04:00:00 8,2 7,4 0 0 N 1026,7 10
07.12.2018 03:00:00 9,6 8,4 0 0 N 1026,6 10
07.12.2018 02:00:00 11,6 9,9 8 4 NW 1026,4 10
07.12.2018 01:00:00 11,8 9,7 4 2 - 1026,6 10
07.12.2018 00:00:00 11,3 10,4 2 1 ESE 1026,7 10
06.12.2018 23:00:00 10,5 9,4 11 6 N 1026,7 10
06.12.2018 22:00:00 12,1 10,3 4 2 - 1026,5 10
06.12.2018 21:00:00 14,7 11,3 8 4 NNW 1026,5 10
06.12.2018 20:00:00 14,2 11,1 5 3 N 1026,2 10
06.12.2018 19:00:00 15,9 11,9 9 5 N 1025,9 10
06.12.2018 18:00:00 19,1 13,3 8 4 NE 1025,7 10
06.12.2018 17:00:00 21,4 13,3 15 8 N 1025,4 10
06.12.2018 16:00:00 22,2 13,2 21 11 N 1025,3 10
06.12.2018 15:00:00 22,4 13,7 18 10 N 1025,7 10
06.12.2018 14:00:00 21,9 13,9 11 6 N 1026,0 10
06.12.2018 13:00:00 20,1 13,3 16 9 N 1026,6 10
06.12.2018 12:00:00 17,7 12,5 26 14 N 1027,2 10
06.12.2018 11:00:00 16,1 12,7 11 6 N 1027,2 10
06.12.2018 10:00:00 12,3 10,7 11 6 N 1027,0 10
06.12.2018 09:00:00 9,0 8,5 8 4 N 1026,5 10
06.12.2018 08:00:00 8,3 7,5 0 0 N 1026,4 10
06.12.2018 07:00:00 8,9 8,3 0 0 N 1026,1 10
06.12.2018 06:00:00 10,2 9,1 11 6 NE 1026,0 10
06.12.2018 05:00:00 9,6 9,3 8 4 N 1026,1 5
06.12.2018 04:00:00 8,0 7,7 0 0 N 1025,9 4,4
06.12.2018 03:00:00 8,2 7,8 0 0 N 1025,7 2,6
06.12.2018 02:00:00 8,6 8,0 0 0 N 1025,9 6
06.12.2018 01:00:00 9,1 8,6 2 1 NNE 1026,4 8
06.12.2018 00:00:00 9,7 9,1 2 1 - 1026,4 10

tt = temperature
td = dewpoint
ff = wind speed
dd = wind direction
ppp = reduced air pressure
vv = visibility

Next stations